This is the latest recevied weather packets stored in our database for station/object SP1BMW-13. If no packets are shown the sender has not sent any weather packets the latest 10 day(s).
| Time | Temp. | Humidity | Pressure | Rain* | Wind** | Luminosity | Snow |
|---|---|---|---|---|---|---|---|
| 1787868137 | 18.89° C | 56% | 1016.7 hPa | 0 mm | 0.45 m/s, 46° | 0 W/m² | - |
| 1787868077 | 18.89° C | 56% | 1016.8 hPa | 0 mm | 0.89 m/s, 65° | 0 W/m² | - |
| 1787868017 | 18.89° C | 56% | 1016.8 hPa | 0 mm | 0.89 m/s, 65° | 0 W/m² | - |
| 1787867957 | 18.89° C | 56% | 1016.8 hPa | 0 mm | 0.45 m/s, 106° | 0 W/m² | - |
| 1787867897 | 18.89° C | 56% | 1016.9 hPa | 0 mm | 0 m/s | 0 W/m² | - |
| 1787867837 | 18.89° C | 56% | 1016.8 hPa | 0 mm | 0.45 m/s, 98° | 0 W/m² | - |
| 1787867777 | 18.89° C | 56% | 1016.9 hPa | 0 mm | 1.34 m/s, 85° | 0 W/m² | - |
| 1787867717 | 18.89° C | 55% | 1016.9 hPa | 0 mm | 0.45 m/s, 142° | 0 W/m² | - |
| 1787867657 | 18.89° C | 55% | 1017 hPa | 0 mm | 1.34 m/s, 91° | 0 W/m² | - |
| 1787867597 | 18.89° C | 55% | 1016.8 hPa | 0 mm | 0.89 m/s, 137° | 0 W/m² | - |
| 1787867537 | 18.89° C | 55% | 1017 hPa | 0 mm | 0.45 m/s, 259° | 0 W/m² | - |
| 1787867477 | 18.89° C | 55% | 1017 hPa | 0 mm | 0.89 m/s, 72° | 0 W/m² | - |
| 1787867417 | 18.89° C | 55% | 1016.9 hPa | 0 mm | 0.89 m/s, 25° | 0 W/m² | - |
| 1787867356 | 18.89° C | 55% | 1017 hPa | 0 mm | 0.45 m/s, 56° | 0 W/m² | - |
| 1787867297 | 18.89° C | 55% | 1017 hPa | 0 mm | 0.89 m/s, 61° | 0 W/m² | - |
| 1787867237 | 18.89° C | 55% | 1016.9 hPa | 0 mm | 0 m/s | 0 W/m² | - |
| 1787867177 | 18.89° C | 55% | 1016.7 hPa | 0 mm | 1.34 m/s, 89° | 0 W/m² | - |
| 1787867117 | 18.89° C | 55% | 1017 hPa | 0 mm | 0.89 m/s, 53° | 0 W/m² | - |
| 1787867057 | 18.89° C | 54% | 1016.9 hPa | 0 mm | 0.45 m/s, 51° | 0 W/m² | - |
| 1787866997 | 19.44° C | 54% | 1017 hPa | 0 mm | 0.45 m/s, 51° | 0 W/m² | - |
| 1787866937 | 19.44° C | 55% | 1017 hPa | 0 mm | 0.89 m/s, 260° | 0 W/m² | - |
| 1787866877 | 19.44° C | 55% | 1017 hPa | 0 mm | 0.45 m/s, 50° | 0 W/m² | - |
| 1787866816 | 19.44° C | 55% | 1017 hPa | 0 mm | 0.45 m/s, 44° | 0 W/m² | - |
| 1787866757 | 19.44° C | 55% | 1016.8 hPa | 0 mm | 0.89 m/s, 81° | 0 W/m² | - |
| 1787866696 | 19.44° C | 54% | 1016.8 hPa | 0 mm | 0.89 m/s, 133° | 0 W/m² | - |
* Rain latest hour (hover to see other rain measurements)
** Current wind speed in m/s (hover to see current wind gust speed)